Flag for U.S.A. Weather past 2 weeks in Casper, Wyoming, U.S.A.

Now
91 °F

Sunny.


Feels Like: 87 °F
Forecast: 68 / 96 °F
Wind: 8 mph from Southeast

Location: Natrona County International Airport

Current Time: Jul 23, 2014 at 7:54:31 PM

Latest Report: Jul 23, 2014 at 6:53 PM


Visibility: 10 mi

Pressure: 29.84 "Hg

Humidity: 20%

Dew point: 45 °F

Location of CasperLocation

Historic Weather in Casper — Graph

°F

Casper temperature yesterday

Maximum temperature yesterday: 92 °F (at 6:53 PM)
Minimum temperature yesterday: 54 °F (at 5:53 AM)
Average temperature yesterday: 70 °F

Past Weeks' High & Low Weather Summary

 TemperatureHumidityPressure
High96 °F (Jul 23, 1:53 PM)97% (Jul 16, 3:53 AM)30.18 "Hg (Jul 16, 3:53 AM)
Low49 °F (Jul 17, 4:53 AM)8% (Jul 19, 3:53 PM)29.67 "Hg (Jul 10, 2:53 AM)
Average71 °F49%29.92 "Hg
* Reported Jul 8 5:53 PM — Jul 23 5:53 PM, Casper, Weather by CustomWeather, © 2014

Note: Actual official high and low records may vary slightly from our data, if they occured in-between our weather recording intervals... More about our weather records

Advertising

Casper weather history for previous 24 hours

 ConditionsComfort  
Time TempWeatherWind HumidityBarometerVisibility
5:53 PM
Jul 23
94 °FSunny.12 mph17%29.85 "Hg10 mi
4:53 PM95 °FSunny.5 mph13%29.87 "Hg10 mi
3:53 PM96 °FSunny.7 mph11%29.89 "Hg10 mi
2:53 PM95 °FSunny.9 mph13%29.91 "Hg10 mi
1:53 PM96 °FSunny.8 mph18%29.94 "Hg10 mi
12:53 PM90 °FSunny.N/A28%29.97 "Hg10 mi
11:53 AM84 °FSunny.6 mph38%30.01 "Hg10 mi
10:53 AM78 °FSunny.6 mph48%30.06 "Hg10 mi
9:53 AM74 °FSunny.No wind56%30.07 "Hg10 mi
8:53 AM68 °FSunny.No wind70%30.09 "Hg10 mi
7:53 AM64 °FSunny.3 mph78%30.09 "Hg10 mi
6:53 AM59 °FSunny.3 mph90%30.09 "Hg9 mi
5:53 AM54 °FClear.5 mph97%30.11 "Hg8 mi
4:53 AM58 °FClear.3 mph93%30.10 "Hg10 mi
3:53 AM58 °FClear.5 mph87%30.09 "Hg10 mi
2:53 AM62 °FClear.9 mph78%30.08 "Hg10 mi
1:53 AM64 °FClear.10 mph70%30.09 "Hg10 mi
11:53 PM
Jul 22
68 °FClear.13 mph45%30.06 "Hg10 mi
10:53 PM64 °FClear.7 mph61%30.05 "Hg10 mi
9:53 PM72 °FClear.7 mph46%30.03 "Hg10 mi
8:53 PM80 °FSunny.8 mph31%30.01 "Hg10 mi
7:53 PM87 °FSunny.7 mph16%30.00 "Hg10 mi
Weather by CustomWeather, © 2014

See weather overviewHow to use our weather pages